| DS18B20 | SHTC3 | ||||||
|---|---|---|---|---|---|---|---|
| ID | Date d/m/Y & Time | data1 สูง | data2 ต่ำ | data3 นอก | temp pcb | hum pcb | Time |
| 4312 | 20/03/2026 19:08:10 | 29.2  | 29.2  | 28.0  | 29.1  | 69.3  | 19:08 |
| 4311 | 20/03/2026 19:03:28 | 29.2  | 29.2  | 28.0  | 29.4  | 69.3  | 19:03 |
| 4310 | 20/03/2026 18:58:46 | 29.2  | 29.2  | 28.0  | 29.2  | 69.2  | 18:58 |
| 4309 | 20/03/2026 18:54:04 | 29.2  | 29.2  | 28.0  | 29.3  | 69.0  | 18:54 |
| 4308 | 20/03/2026 18:49:22 | 29.2  | 29.2  | 28.1  | 29.4  | 69.0  | 18:49 |
| 4307 | 20/03/2026 18:44:40 | 29.2  | 29.1  | 28.1  | 29.1  | 69.2  | 18:44 |
| 4306 | 20/03/2026 18:39:59 | 29.1  | 28.9  | 28.2  | 28.9  | 68.9  | 18:39 |
| 4305 | 20/03/2026 18:35:17 | 29.1  | 28.8  | 28.2  | 28.7  | 69.1  | 18:35 |
| 4304 | 20/03/2026 18:30:35 | 29.1  | 28.9  | 28.2  | 29.0  | 69.4  | 18:30 |
| 4303 | 20/03/2026 18:25:54 | 29.2  | 29.0  | 28.4  | 29.1  | 69.5  | 18:25 |
| 4302 | 20/03/2026 18:21:12 | 29.3  | 29.0  | 28.4  | 29.2  | 69.2  | 18:21 |
| 4301 | 20/03/2026 18:16:31 | 29.4  | 29.2  | 28.4  | 29.2  | 68.9  | 18:16 |
| 4300 | 20/03/2026 18:11:49 | 29.4  | 29.2  | 28.5  | 29.4  | 68.2  | 18:11 |
| 4299 | 20/03/2026 18:07:07 | 29.4  | 29.1  | 28.5  | 29.4  | 67.9  | 18:07 |
| 4298 | 20/03/2026 18:02:24 | 29.4  | 29.1  | 28.5  | 29.4  | 67.9  | 18:02 |
| 4297 | 20/03/2026 17:57:43 | 29.5  | 29.2  | 28.5  | 29.2  | 67.9  | 17:57 |
| 4296 | 20/03/2026 17:53:01 | 29.6  | 29.2  | 28.6  | 29.4  | 68.0  | 17:53 |
| 4295 | 20/03/2026 17:48:20 | 29.6  | 29.4  | 28.9  | 29.5  | 68.0  | 17:48 |
| 4294 | 20/03/2026 17:43:38 | 29.6  | 29.4  | 28.8  | 29.6  | 67.9  | 17:43 |
| 4293 | 20/03/2026 17:38:56 | 29.7  | 29.4  | 29.0  | 29.4  | 67.7  | 17:38 |
| 4292 | 20/03/2026 17:34:14 | 29.8  | 29.5  | 29.0  | 29.6  | 67.0  | 17:34 |
| 4291 | 20/03/2026 17:29:33 | 29.8  | 29.5  | 29.0  | 29.7  | 67.0  | 17:29 |
| 4290 | 20/03/2026 17:24:51 | 29.9  | 29.6  | 29.0  | 29.7  | 67.0  | 17:24 |
| 4289 | 20/03/2026 17:20:09 | 29.9  | 29.6  | 29.0  | 29.7  | 66.8  | 17:20 |